Tracking 35331 objects as of 16-Sep-2026
HD Live streaming from Space Station
objects crossing your sky now

SL-8 DEB *


SL-8 DEB * is no longer on orbit


NORAD ID: 8550
Int'l Code: 1976-001D
Launch date: January 6, 1976
Source: Commonwealth of Independent States (former USSR) (CIS)
Launch site: PLESETSK MISSILE AND SPACE COMPLEX (PKMTR)
Decay date: 1977-03-24

Note: This is SATELLITE DEBRIS
Your satellite tracking list
Your tracking list is empty




NASA's NSSDC Master Catalog

Two Line Element Set (TLE):
1 08550U 76001  D 77080.53517459  .02313084 +00000-0 +00000-0 0  9994
2 08550 074.0239 010.5626 0000010 349.4373 018.3243 15.95662211067483
Source of the keplerian elements: AFSPC